Hourly Data Report for February 03, 2021

TORONTO CITY
ONTARIO
Current Station Operator: ECCC - MSC

43°40'00.000" N
79°24'00.000" W
112.50 m
6158355
71508
XTO

Download Data

Hourly Data (February 2021)
Hourly Data Report for February 3, 2021
TIME
LST
Temp Definition
°C
Dew Point Definition
°C
Rel Hum Definition
%
Precip. Amount Definition
mm

Wind Dir Definition
10's deg

Wind Spd Definition
km/h
Visibility Definition
km
Stn Press Definition
kPa
Hmdx Definition


Wind Chill Definition


Weather Definition


00:00 -2.4 -9.7 57 0.0       99.43     LegendNANA
01:00 -3.2 -10.5 57 0.0       99.41     LegendNANA
02:00 -3.7 -10.8 58 0.0       99.45     LegendNANA
03:00 -4.7 -11.5 59 0.0       99.46     LegendNANA
04:00 -5.4 -11.7 61 0.0       99.49     LegendNANA
05:00 -5.7 -12.1 61 0.0       99.51     LegendNANA
06:00 -5.3 -13.1 54 0.0       99.55     LegendNANA
07:00 -5.4 -13.2 54 0.0       99.60     LegendNANA
08:00 -5.4 -12.6 57 0.0       99.60     LegendNANA
09:00 -5.0 -12.3 56 0.0       99.64     LegendNANA
10:00 -3.6 -12.7 49 0.0       99.67     LegendNANA
11:00 -3.0 -13.4 45 0.0       99.74     LegendNANA
12:00 -1.1 -13.0 40 0.0       99.69     LegendNANA
13:00 0.0 -12.7 38 0.0       99.65     LegendNANA
14:00 0.4 -12.6 37 0.0       99.63     LegendNANA
15:00 0.7 -10.9 41 0.0       99.64     LegendNANA
16:00 0.2 -10.0 46 0.0       99.68     LegendNANA
17:00 0.0 -10.1 47 0.0       99.71     LegendNANA
18:00 -1.1 -9.8 52 0.0       99.75     LegendNANA
19:00 -1.3 -9.8 53 0.0       99.80     LegendNANA
20:00 -1.2 -8.8 56 0.0       99.79     LegendNANA
21:00 -1.1 -8.0 60 0.0       99.85     LegendNANA
22:00 -1.3 -8.5 58 0.0       99.86     LegendNANA
23:00 -1.3 -7.6 62 0.0       99.87     LegendNANA

Notes on Data Quality.

Legend

  • E = Estimated
  • M = Missing
  • NA = Not Available*
  • [empty] = Indicates an unobserved value
Date modified: